• In France
  • List of Countries
  • For 7 days
  • Water Temperature
  • Satellite Maps
  • Weather Map
  • Weather Widgets
  • user-avatar
    Login

    Hourly Weather Zarya

    Today, 26 September, Wednesday

    Time Temperature Precipitation Wind Pressure Humidity
    00:00 +5°C° 0 mm 4 mps 742 mmHg 79%
    01:00 +5°C° 0 mm 4 mps 742 mmHg 81%
    02:00 +4°C° 0 mm 4 mps 743 mmHg 83%
    03:00 +4°C° 0 mm 4 mps 743 mmHg 84%
    04:00 +3°C° 0 mm 4 mps 744 mmHg 86%
    05:00 +3°C° 0 mm 4 mps 744 mmHg 87%
    06:00 +3°C° 0 mm 4 mps 745 mmHg 89%
    07:00 +3°C° 0 mm 4 mps 746 mmHg 84%
    08:00 +4°C° 0 mm 4 mps 746 mmHg 80%
    09:00 +5°C° 0 mm 4 mps 747 mmHg 76%
    10:00 +6°C° 0 mm 4 mps 747 mmHg 69%
    11:00 +7°C° 0 mm 5 mps 747 mmHg 63%
    12:00 +8°C° 0 mm 5 mps 748 mmHg 56%
    13:00 +9°C° 0 mm 5 mps 748 mmHg 54%
    14:00 +9°C° 0 mm 5 mps 747 mmHg 52%
    15:00 +9°C° 0 mm 5 mps 747 mmHg 50%
    16:00 +8°C° 0 mm 4 mps 747 mmHg 54%
    17:00 +7°C° 0 mm 4 mps 747 mmHg 58%
    18:00 +7°C° 0 mm 3 mps 747 mmHg 62%
    19:00 +6°C° 0 mm 4 mps 747 mmHg 64%
    20:00 +5°C° 0 mm 4 mps 747 mmHg 65%
    21:00 +5°C° 0 mm 4 mps 746 mmHg 67%
    22:00 +5°C° 0 mm 5 mps 746 mmHg 67%
    23:00 +4°C° 0 mm 6 mps 745 mmHg 66%

    Tomorrow, 27 September, Thursday

    Time Temperature Precipitation Wind Pressure Humidity
    00:00 +5°C° 0 mm 6 mps 744 mmHg 66%
    01:00 +5°C° 0 mm 7 mps 744 mmHg 64%
    02:00 +5°C° 0 mm 8 mps 743 mmHg 62%
    03:00 +5°C° 0 mm 8 mps 742 mmHg 61%
    04:00 +5°C° 0.7 mm 9 mps 741 mmHg 64%
    05:00 +3°C° 0.7 mm 10 mps 740 mmHg 68%
    06:00 +3°C° 0.7 mm 11 mps 738 mmHg 72%
    07:00 +3°C° 0.6 mm 11 mps 738 mmHg 75%
    08:00 +3°C° 0.6 mm 11 mps 737 mmHg 77%
    09:00 +3°C° 0.6 mm 11 mps 736 mmHg 80%
    10:00 +4°C° 0.4 mm 11 mps 736 mmHg 81%
    11:00 +6°C° 0.4 mm 10 mps 736 mmHg 82%
    12:00 +6°C° 0.4 mm 10 mps 736 mmHg 83%
    13:00 +7°C° 0.1 mm 9 mps 736 mmHg 79%
    14:00 +8°C° 0.1 mm 9 mps 736 mmHg 75%
    15:00 +10°C° 0.1 mm 9 mps 736 mmHg 71%
    16:00 +9°C° 0 mm 8 mps 736 mmHg 71%
    17:00 +9°C° 0 mm 7 mps 737 mmHg 71%
    18:00 +8°C° 0 mm 5 mps 737 mmHg 70%
    19:00 +8°C° 0 mm 5 mps 738 mmHg 73%
    20:00 +7°C° 0 mm 5 mps 738 mmHg 75%
    21:00 +7°C° 0 mm 5 mps 738 mmHg 78%
    22:00 +6°C° 0 mm 5 mps 738 mmHg 79%
    23:00 +6°C° 0 mm 5 mps 739 mmHg 79%

    Day after tomorrow, 28 September, Friday

    Time Temperature Precipitation Wind Pressure Humidity
    00:00 +6°C° 0 mm 5 mps 739 mmHg 80%
    01:00 +6°C° 0 mm 5 mps 739 mmHg 82%
    02:00 +6°C° 0 mm 5 mps 739 mmHg 84%
    03:00 +5°C° 0 mm 5 mps 738 mmHg 87%
    04:00 +5°C° 0 mm 6 mps 738 mmHg 86%
    05:00 +5°C° 0 mm 6 mps 737 mmHg 85%
    06:00 +5°C° 0 mm 7 mps 737 mmHg 84%
    07:00 +6°C° 0 mm 8 mps 736 mmHg 82%
    08:00 +7°C° 0 mm 9 mps 736 mmHg 80%
    09:00 +8°C° 0 mm 11 mps 735 mmHg 78%
    10:00 +9°C° 0 mm 11 mps 735 mmHg 79%
    11:00 +9°C° 0 mm 10 mps 735 mmHg 80%
    12:00 +11°C° 0 mm 10 mps 734 mmHg 81%
    13:00 +11°C° 0 mm 10 mps 734 mmHg 80%
    14:00 +12°C° 0 mm 11 mps 734 mmHg 79%
    15:00 +13°C° 0 mm 11 mps 734 mmHg 78%
    16:00 +12°C° 0.6 mm 10 mps 734 mmHg 80%
    17:00 +12°C° 0.6 mm 9 mps 734 mmHg 82%
    18:00 +12°C° 0.6 mm 8 mps 735 mmHg 84%
    19:00 +10°C° 0.2 mm 7 mps 736 mmHg 83%
    20:00 +9°C° 0.2 mm 6 mps 737 mmHg 83%
    21:00 +7°C° 0.2 mm 5 mps 738 mmHg 82%
    22:00 +6°C° 0 mm 4 mps 738 mmHg 84%
    23:00 +5°C° 0 mm 3 mps 739 mmHg 85%

    29 September, Saturday

    Time Temperature Precipitation Wind Pressure Humidity
    00:00 +5°C° 0 mm 2 mps 740 mmHg 87%
    01:00 +5°C° 0 mm 2 mps 740 mmHg 87%
    02:00 +4°C° 0 mm 2 mps 741 mmHg 88%
    03:00 +4°C° 0 mm 2 mps 741 mmHg 89%
    04:00 +4°C° 0 mm 2 mps 742 mmHg 89%
    05:00 +4°C° 0 mm 2 mps 742 mmHg 89%
    06:00 +3°C° 0 mm 2 mps 743 mmHg 89%
    07:00 +5°C° 0 mm 2 mps 743 mmHg 85%
    08:00 +6°C° 0 mm 2 mps 744 mmHg 81%
    09:00 +7°C° 0 mm 2 mps 744 mmHg 77%
    10:00 +8°C° 0 mm 3 mps 744 mmHg 71%
    11:00 +9°C° 0 mm 3 mps 745 mmHg 66%
    12:00 +10°C° 0 mm 3 mps 745 mmHg 60%
    13:00 +10°C° 0 mm 2 mps 745 mmHg 58%
    14:00 +12°C° 0 mm 2 mps 745 mmHg 56%
    15:00 +12°C° 0 mm 2 mps 745 mmHg 55%
    16:00 +10°C° 0 mm 2 mps 745 mmHg 58%
    17:00 +9°C° 0 mm 2 mps 745 mmHg 61%
    18:00 +10°C° 0 mm 1 mps 745 mmHg 64%
    19:00 +9°C° 0 mm 1 mps 746 mmHg 64%
    20:00 +9°C° 0 mm 1 mps 746 mmHg 65%
    21:00 +8°C° 0 mm 1 mps 747 mmHg 65%
    22:00 +8°C° 0 mm 1 mps 747 mmHg 65%
    23:00 +7°C° 0 mm 1 mps 747 mmHg 65%

    30 September, Sunday

    Time Temperature Precipitation Wind Pressure Humidity
    00:00 +7°C° 0 mm 1 mps 747 mmHg 65%
    01:00 +6°C° 0 mm 1 mps 748 mmHg 66%
    02:00 +6°C° 0 mm 1 mps 748 mmHg 66%
    03:00 +5°C° 0 mm 1 mps 748 mmHg 66%
    04:00 +5°C° 0 mm 1 mps 748 mmHg 67%
    05:00 +5°C° 0 mm 1 mps 749 mmHg 67%
    06:00 +4°C° 0 mm 1 mps 749 mmHg 67%
    07:00 +5°C° 0 mm 1 mps 749 mmHg 64%
    08:00 +6°C° 0 mm 1 mps 749 mmHg 61%
    09:00 +7°C° 0 mm 1 mps 750 mmHg 58%
    10:00 +9°C° 0 mm 1 mps 750 mmHg 54%
    11:00 +10°C° 0 mm 1 mps 750 mmHg 51%
    12:00 +11°C° 0 mm 1 mps 750 mmHg 48%
    13:00 +10°C° 0 mm 2 mps 749 mmHg 47%
    14:00 +12°C° 0 mm 2 mps 749 mmHg 46%
    15:00 +12°C° 0 mm 2 mps 749 mmHg 46%
    16:00 +10°C° 0 mm 2 mps 749 mmHg 50%
    17:00 +9°C° 0 mm 2 mps 748 mmHg 55%
    18:00 +9°C° 0 mm 1 mps 748 mmHg 60%
    19:00 +9°C° 0 mm 1 mps 748 mmHg 62%
    20:00 +8°C° 0 mm 1 mps 748 mmHg 65%
    21:00 +7°C° 0 mm 1 mps 748 mmHg 67%
    22:00 +6°C° 0 mm 2 mps 748 mmHg 69%
    23:00 +6°C° 0 mm 2 mps 748 mmHg 72%

    1 October, Monday

    Time Temperature Precipitation Wind Pressure Humidity
    00:00 +6°C° 0 mm 2 mps 748 mmHg 74%
    01:00 +5°C° 0 mm 2 mps 748 mmHg 76%
    02:00 +5°C° 0 mm 2 mps 748 mmHg 79%
    03:00 +5°C° 0 mm 2 mps 748 mmHg 81%
    04:00 +4°C° 0 mm 2 mps 748 mmHg 82%
    05:00 +4°C° 0 mm 2 mps 747 mmHg 83%
    06:00 +4°C° 0 mm 2 mps 747 mmHg 84%
    07:00 +4°C° 0 mm 3 mps 747 mmHg 78%
    08:00 +5°C° 0 mm 3 mps 747 mmHg 73%
    09:00 +7°C° 0 mm 3 mps 747 mmHg 68%
    10:00 +8°C° 0 mm 4 mps 747 mmHg 62%
    11:00 +10°C° 0 mm 4 mps 747 mmHg 57%
    12:00 +12°C° 0 mm 4 mps 747 mmHg 51%
    13:00 +12°C° 0 mm 4 mps 747 mmHg 50%
    14:00 +12°C° 0 mm 4 mps 747 mmHg 49%
    15:00 +13°C° 0 mm 4 mps 746 mmHg 48%
    16:00 +11°C° 0 mm 4 mps 746 mmHg 53%
    17:00 +10°C° 0 mm 3 mps 746 mmHg 58%
    18:00 +9°C° 0 mm 2 mps 746 mmHg 63%
    19:00 +9°C° 0 mm 2 mps 746 mmHg 65%
    20:00 +8°C° 0 mm 2 mps 746 mmHg 67%
    21:00 +7°C° 0 mm 2 mps 746 mmHg 68%
    22:00 +7°C° 0 mm 2 mps 746 mmHg 69%
    23:00 +7°C° 0 mm 2 mps 746 mmHg 70%
    Show more